Find Starlink 34271

NORAD ID: 64384 Int'l Des: 2025-127 Owner: SPXS Country: US Constellation: starlink operational
LEOCIRCULAR

当前视图

正在加载3D地球...

关于 Starlink 34271

正在加载描述...

即将过境

Passes for default location (London). Set your location on the main map for personalized predictions.

高度历史

Loading altitude history...

两行轨道根数

1 64384U 25127Q 26145.38294507 .00018169 00000-0 66781-3 0 9994
2 64384 42.9989 106.8875 0001174 263.6703 96.4015 15.27595909 54199
Epoch: May 25, 2026 • Age: 10 hours

当前状态

高度 483.3 km
速度 7.63 km/s
星下点 25.38°N, 82.42°E
发射日期 Jun 13, 2025
运行时间 0.9 years
类型 internet

技术详情

分类 Payload
质量 575.00 kg
干质量 530.00 kg
总质量 575.00 kg
长度 0.30 m
直径 4.10 m
跨度 29.00 m
形状 Box + pan
制造商 SPXS
平台类型 Starlink V2MO
阶段状态 In Orbit
所有者/国家 SPXS/US

Most Searched